Regional Weather Roundup
Issued by NWS State College, PA

Home | Current Version | Previous Version | Text Only | Print | Product List | Glossary On
Versions: 1 2 3 4 5 6 7 8 9 10 11 12 13 14 15 16 17 18 19 20 21 22 23 24 25 26 27 28 29 30 31 32 33 34 35 36 37 38 39 40 41 42 43 44 45 46 47 48 49 50
000
ASUS41 KCTP 172003
RWRCTP

REGIONAL WEATHER ROUNDUP
NATIONAL WEATHER SERVICE STATE COLLEGE PA
300 PM EST WED DEC 17 2014

Note: "fair" indicates few or no clouds below 12,000 feet with no
significant weather and/or obstructions to visibility.

* = STATION THAT DOES NOT REPORT PRECIPITATION /E.G. RAIN...SNOW...ETC/
    THUNDER OR FOG.

PAZ002>004-007>009-013>016-020>023-029>032-172100-
WESTERN PENNSYLVANIA

CITY           SKY/WX    TMP DP  RH WIND       PRES   REMARKS
ERIE           CLOUDY    33  26  75 W14G28    30.02R
MEADVILLE      CLOUDY    31  23  72 W15G24    30.00S
FRANKLIN*      CLOUDY    30  23  74 W12G20    30.02R
NEW CASTLE       N/A     32  26  78 W12       30.07R
BEAVER COUNTY  CLOUDY    32  25  74 W8        30.06R
BUTLER*        CLOUDY    32  25  74 W14G21    30.06R
PITTSBURGH INT CLOUDY    33  25  72 SW12      30.06R
PITTSBURGH     CLOUDY    33  22  63 W20G26    30.05R
INDIANA*       CLOUDY    34  27  75 NW8G16    30.05R
LATROBE        CLOUDY   N/A N/A N/A W17G29    30.06R
WASHINGTON CO* CLOUDY    34  25  69 W10       30.10R
$$

PAZ004>006-010>012-017>019-024>028-033>037-041-042-045-046-049>053-172100-
CENTRAL PENNSYLVANIA

CITY           SKY/WX    TMP DP  RH WIND       PRES   REMARKS
BRADFORD       MIX PCPN  30  24  78 W10G22    29.91R
DUBOIS         CLOUDY    31  25  78 W15G26    29.96R
CLEARFIELD     LGT SNOW  33  27  78 W16G24    29.96R
JOHNSTOWN      CLOUDY    30  24  78 W22G29    29.94R
ALTOONA        CLOUDY    35  26  69 W16G24    29.97R
STATE COLLEGE  CLOUDY    37  28  70 W20       29.95R
WILLIAMSPORT   CLOUDY    42  32  67 W15       29.91R
SELINSGROVE    CLOUDY    44  31  60 W7G21     29.94R
FT INDIANTOWN  CLOUDY    44  29  54 W12G26    29.94R
CAPITAL CITY   CLOUDY    44  29  55 W13G24    29.97R
HARRISBURG     CLOUDY    43  30  60 W17G26    29.95R
YORK           PTSUNNY   45  29  53 NW16G23   29.96R
$$

PAZ038>040-043-044-047-048-054-055-060>062-067>071-172100-
EASTERN PENNSYLVANIA

CITY           SKY/WX    TMP DP  RH WIND       PRES   REMARKS
SCRANTON       LGT RAIN  43  37  79 W10       29.86R
MOUNT POCONO   CLOUDY    38  34  85 W13G23    29.82R
ALLENTOWN      CLOUDY    47  33  58 W9G26     29.88R
QUAKERTOWN*    MOCLDY    46  32  57 W13G21    29.89S
READING        CLOUDY    46  31  55 W17G25    29.91R
LANCASTER      CLOUDY    45  31  58 W20       29.93R
COATESVILLE    CLOUDY    46  36  66 W20G26    29.91S
POTTSTOWN      CLOUDY    46  33  60 W16G23    29.91R
BLUE BELL      CLOUDY    50  34  53 W9G21     29.88R
DOYLESTOWN     CLOUDY    46  33  60 W10G24    29.87R
WILLOW GROVE   NOT AVBL
NORTH PHILA    CLOUDY    51  33  50 W16G33    29.90R
PHILADELPHIA   CLOUDY    51  34  52 W21G30    29.91R
$$



USA.gov is the U.S. government's official web portal to all federal, state and local government web resources and services.